This is the latest recevied weather packets stored in our database for station/object NW5W-12. If no packets are shown the sender has not sent any weather packets the latest 10 day(s).
| Time | Temp. | Humidity | Pressure | Rain* | Wind** | Luminosity | Snow |
|---|---|---|---|---|---|---|---|
| 1788127140 | 20.56° C | 53% | 1019.9 hPa | 1.02 mm | - | - | - |
| 1788126839 | 21.11° C | 53% | 1020 hPa | 1.02 mm | - | - | - |
| 1788126540 | 21.11° C | 53% | 1019.9 hPa | 1.02 mm | - | - | - |
| 1788126239 | 21.67° C | 51% | 1019.8 hPa | 1.02 mm | - | - | - |
| 1788125940 | 22.22° C | 49% | 1020 hPa | 1.02 mm | - | - | - |
| 1788125639 | 22.78° C | 47% | 1019.9 hPa | 1.02 mm | - | - | - |
| 1788125340 | 23.33° C | 45% | 1020 hPa | 1.02 mm | - | - | - |
| 1788125039 | 23.89° C | 45% | 1020 hPa | 1.02 mm | - | - | - |
| 1788124740 | 23.89° C | 45% | 1020 hPa | 1.02 mm | - | - | - |
| 1788124440 | 23.89° C | 44% | 1020 hPa | 1.02 mm | - | - | - |
| 1788124140 | 23.89° C | 48% | 1020.1 hPa | 1.02 mm | - | - | - |
| 1788123839 | 23.89° C | 50% | 1020.1 hPa | 1.02 mm | - | - | - |
| 1788123540 | 23.89° C | 48% | 1020.2 hPa | 1.02 mm | - | - | - |
| 1788123240 | 23.89° C | 50% | 1020.1 hPa | 1.02 mm | - | - | - |
| 1788122940 | 23.89° C | 51% | 1020.1 hPa | 1.02 mm | - | - | - |
| 1788122640 | 23.33° C | 53% | 1020.2 hPa | 1.02 mm | - | - | - |
| 1788122340 | 23.33° C | 53% | 1020.3 hPa | 1.02 mm | - | - | - |
| 1788122040 | 23.33° C | 52% | 1020.4 hPa | 1.02 mm | - | - | - |
| 1788121740 | 23.33° C | 52% | 1020.3 hPa | 1.02 mm | - | - | - |
| 1788121439 | 23.89° C | 52% | 1020.5 hPa | 1.02 mm | - | - | - |
| 1788121140 | 23.33° C | 53% | 1020.4 hPa | 1.02 mm | - | - | - |
| 1788120839 | 23.33° C | 54% | 1020.4 hPa | 1.02 mm | - | - | - |
| 1788120540 | 23.33° C | 56% | 1020.5 hPa | 1.02 mm | - | - | - |
| 1788120240 | 22.78° C | 57% | 1020.5 hPa | 1.02 mm | - | - | - |
| 1788119940 | 22.78° C | 56% | 1020.5 hPa | 1.02 mm | - | - | - |
* Rain since midnight (hover to see other rain measurements)
** Current wind speed in m/s (hover to see current wind gust speed)